When you browse on this site, cookies collect data to enhance your experience and personalize the content and advertising you see.
Visit our Privacy Policy to learn more. By continuing to use the site, you agree to this use of cookies and data.
  • In Österreich
  • Länderverzeichnis
  • Für 7 Tage
  • Wassertemperatur
  • Satellitenkarten
  • Wetterkarte
  • News
  • Widgets
  • user-avatar
    Anmelden

    Stündliche Wetter Petraki

    Heute, 16 Februar, Samstag

    Zeit Temperatur Niederschläge Wind Luftdruck Luftfeuchtigkeit
    00:00 -1°C° 0 mm 4 m/S 744 mmHg 96%
    01:00 -1°C° 0 mm 4 m/S 744 mmHg 96%
    02:00 +1°C° 0 mm 2 m/S 744 mmHg 97%
    03:00 0°C° 0 mm 3 m/S 744 mmHg 97%
    04:00 0°C° 0 mm 3 m/S 744 mmHg 97%
    05:00 0°C° 0 mm 3 m/S 744 mmHg 97%
    06:00 0°C° 0 mm 3 m/S 743 mmHg 97%
    07:00 0°C° 0 mm 3 m/S 743 mmHg 97%
    08:00 0°C° 0 mm 3 m/S 743 mmHg 97%
    09:00 0°C° 0 mm 3 m/S 743 mmHg 96%
    10:00 0°C° 0 mm 3 m/S 742 mmHg 95%
    11:00 +1°C° 0 mm 3 m/S 742 mmHg 94%
    12:00 +1°C° 0 mm 3 m/S 742 mmHg 93%
    13:00 +1°C° 0 mm 3 m/S 741 mmHg 92%
    14:00 +2°C° 0 mm 3 m/S 741 mmHg 90%
    15:00 +1°C° 0 mm 3 m/S 741 mmHg 89%
    16:00 +1°C° 0 mm 3 m/S 740 mmHg 87%
    17:00 +1°C° 0 mm 3 m/S 740 mmHg 85%
    18:00 0°C° 0 mm 3 m/S 739 mmHg 84%
    19:00 -1°C° 0 mm 4 m/S 739 mmHg 84%
    20:00 -1°C° 0 mm 4 m/S 738 mmHg 83%
    21:00 -1°C° 0 mm 4 m/S 738 mmHg 83%
    22:00 -1°C° 0 mm 4 m/S 737 mmHg 82%
    23:00 -1°C° 0 mm 4 m/S 737 mmHg 82%

    Morgen, 17 Februar, Sonntag

    Zeit Temperatur Niederschläge Wind Luftdruck Luftfeuchtigkeit
    00:00 -1°C° 0 mm 4 m/S 737 mmHg 83%
    01:00 -1°C° 0 mm 4 m/S 736 mmHg 84%
    02:00 -1°C° 0 mm 4 m/S 736 mmHg 85%
    03:00 -2°C° 0 mm 4 m/S 736 mmHg 86%
    04:00 -2°C° 0 mm 4 m/S 735 mmHg 88%
    05:00 -2°C° 0 mm 5 m/S 735 mmHg 90%
    06:00 -1°C° 0 mm 5 m/S 735 mmHg 90%
    07:00 -1°C° 0 mm 5 m/S 735 mmHg 90%
    08:00 -1°C° 0 mm 5 m/S 736 mmHg 90%
    09:00 -1°C° 0 mm 5 m/S 736 mmHg 84%
    10:00 -1°C° 0 mm 5 m/S 736 mmHg 79%
    11:00 -1°C° 0 mm 5 m/S 736 mmHg 74%
    12:00 -2°C° 0 mm 6 m/S 736 mmHg 72%
    13:00 -2°C° 0 mm 6 m/S 737 mmHg 71%
    14:00 -2°C° 0 mm 6 m/S 737 mmHg 69%
    15:00 -3°C° 0 mm 6 m/S 737 mmHg 71%
    16:00 -3°C° 0 mm 6 m/S 738 mmHg 73%
    17:00 -4°C° 0 mm 5 m/S 738 mmHg 75%
    18:00 -4°C° 0 mm 5 m/S 739 mmHg 75%
    19:00 -5°C° 0 mm 5 m/S 739 mmHg 76%
    20:00 -5°C° 0 mm 5 m/S 740 mmHg 77%
    21:00 -6°C° 0 mm 5 m/S 741 mmHg 78%
    22:00 -5°C° 0 mm 4 m/S 741 mmHg 80%
    23:00 -5°C° 0 mm 4 m/S 742 mmHg 81%

    übermorgen, 18 Februar, Montag

    Zeit Temperatur Niederschläge Wind Luftdruck Luftfeuchtigkeit
    00:00 -5°C° 0 mm 4 m/S 742 mmHg 82%
    01:00 -5°C° 0 mm 4 m/S 743 mmHg 83%
    02:00 -6°C° 0 mm 3 m/S 743 mmHg 84%
    03:00 -6°C° 0 mm 3 m/S 744 mmHg 85%
    04:00 -6°C° 0 mm 3 m/S 744 mmHg 86%
    05:00 -6°C° 0 mm 3 m/S 745 mmHg 87%
    06:00 -7°C° 0 mm 3 m/S 745 mmHg 88%
    07:00 -6°C° 0 mm 2 m/S 746 mmHg 89%
    08:00 -6°C° 0 mm 2 m/S 746 mmHg 90%
    09:00 -6°C° 0 mm 2 m/S 747 mmHg 86%
    10:00 -5°C° 0 mm 2 m/S 747 mmHg 82%
    11:00 -4°C° 0 mm 2 m/S 748 mmHg 78%
    12:00 -4°C° 0 mm 2 m/S 748 mmHg 76%
    13:00 -1°C° 0 mm 1 m/S 748 mmHg 73%
    14:00 -1°C° 0 mm 1 m/S 748 mmHg 70%
    15:00 -2°C° 0 mm 1 m/S 748 mmHg 74%
    16:00 -2°C° 0 mm 1 m/S 748 mmHg 77%
    17:00 -3°C° 0 mm 1 m/S 748 mmHg 80%
    18:00 -3°C° 0 mm 1 m/S 748 mmHg 81%
    19:00 -4°C° 0 mm 1 m/S 748 mmHg 82%
    20:00 -6°C° 0 mm 2 m/S 748 mmHg 82%
    21:00 -5°C° 0 mm 2 m/S 747 mmHg 82%
    22:00 -5°C° 0 mm 2 m/S 747 mmHg 81%
    23:00 -6°C° 0 mm 3 m/S 747 mmHg 80%

    19 Februar, Dienstag

    Zeit Temperatur Niederschläge Wind Luftdruck Luftfeuchtigkeit
    00:00 -5°C° 0 mm 3 m/S 747 mmHg 78%
    01:00 -5°C° 0 mm 4 m/S 746 mmHg 75%
    02:00 -5°C° 0 mm 4 m/S 746 mmHg 73%
    03:00 -5°C° 0 mm 4 m/S 745 mmHg 72%
    04:00 -4°C° 0 mm 4 m/S 745 mmHg 72%
    05:00 -4°C° 0 mm 4 m/S 744 mmHg 71%
    06:00 -4°C° 0 mm 4 m/S 744 mmHg 73%
    07:00 -4°C° 0 mm 4 m/S 744 mmHg 75%
    08:00 -4°C° 0 mm 4 m/S 743 mmHg 76%
    09:00 -4°C° 0 mm 5 m/S 743 mmHg 76%
    10:00 -2°C° 0 mm 5 m/S 742 mmHg 75%
    11:00 -1°C° 0 mm 5 m/S 742 mmHg 75%
    12:00 -1°C° 0 mm 5 m/S 741 mmHg 74%
    13:00 -1°C° 0 mm 5 m/S 741 mmHg 73%
    14:00 0°C° 0 mm 5 m/S 740 mmHg 72%
    15:00 -1°C° 0 mm 5 m/S 739 mmHg 71%
    16:00 -1°C° 0 mm 5 m/S 739 mmHg 71%
    17:00 -2°C° 0 mm 5 m/S 738 mmHg 71%
    18:00 -2°C° 0 mm 5 m/S 738 mmHg 73%
    19:00 -2°C° 0 mm 5 m/S 737 mmHg 75%
    20:00 -2°C° 0 mm 5 m/S 737 mmHg 77%
    21:00 -2°C° 0 mm 5 m/S 736 mmHg 79%
    22:00 -2°C° 0 mm 5 m/S 735 mmHg 81%
    23:00 -2°C° 0 mm 5 m/S 735 mmHg 83%

    20 Februar, Mittwoch

    Zeit Temperatur Niederschläge Wind Luftdruck Luftfeuchtigkeit
    00:00 -1°C° 0.2 mm 5 m/S 734 mmHg 85%
    01:00 -1°C° 0.2 mm 5 m/S 734 mmHg 88%
    02:00 -1°C° 0.2 mm 5 m/S 733 mmHg 90%
    03:00 -1°C° 0.5 mm 5 m/S 733 mmHg 91%
    04:00 -1°C° 0.5 mm 4 m/S 733 mmHg 92%
    05:00 -1°C° 0.5 mm 4 m/S 733 mmHg 93%
    06:00 -1°C° 0.1 mm 4 m/S 732 mmHg 93%
    07:00 -1°C° 0.1 mm 4 m/S 732 mmHg 92%
    08:00 -1°C° 0.1 mm 4 m/S 732 mmHg 92%
    09:00 -1°C° 0.1 mm 4 m/S 732 mmHg 91%
    10:00 0°C° 0.1 mm 4 m/S 732 mmHg 90%
    11:00 0°C° 0.1 mm 4 m/S 732 mmHg 89%
    12:00 0°C° 0.2 mm 5 m/S 731 mmHg 88%
    13:00 0°C° 0.2 mm 5 m/S 731 mmHg 87%
    14:00 0°C° 0.2 mm 5 m/S 730 mmHg 86%
    15:00 0°C° 0.3 mm 5 m/S 730 mmHg 85%
    16:00 0°C° 0.3 mm 5 m/S 730 mmHg 85%
    17:00 0°C° 0.3 mm 5 m/S 729 mmHg 85%
    18:00 -1°C° 0.5 mm 4 m/S 730 mmHg 85%
    19:00 -1°C° 0.5 mm 4 m/S 730 mmHg 86%
    20:00 -1°C° 0.5 mm 4 m/S 730 mmHg 86%
    21:00 -1°C° 0.3 mm 4 m/S 730 mmHg 87%
    22:00 -2°C° 0.3 mm 4 m/S 730 mmHg 87%
    23:00 -2°C° 0.3 mm 4 m/S 731 mmHg 88%

    21 Februar, Donnerstag

    Zeit Temperatur Niederschläge Wind Luftdruck Luftfeuchtigkeit
    00:00 -2°C° 0.1 mm 4 m/S 731 mmHg 89%
    01:00 -2°C° 0.1 mm 4 m/S 732 mmHg 89%
    02:00 -1°C° 0.1 mm 4 m/S 732 mmHg 90%
    03:00 -2°C° 0.1 mm 5 m/S 732 mmHg 88%
    04:00 -2°C° 0.1 mm 5 m/S 732 mmHg 87%
    05:00 -4°C° 0.1 mm 5 m/S 732 mmHg 85%
    06:00 -4°C° 0.2 mm 5 m/S 733 mmHg 86%
    07:00 -4°C° 0.2 mm 5 m/S 733 mmHg 86%
    08:00 -4°C° 0.2 mm 5 m/S 733 mmHg 87%
    09:00 -5°C° 0.1 mm 5 m/S 734 mmHg 82%
    10:00 -6°C° 0.1 mm 5 m/S 734 mmHg 78%
    11:00 -6°C° 0.1 mm 6 m/S 735 mmHg 73%
    12:00 -8°C° 0.1 mm 6 m/S 735 mmHg 72%
    13:00 -8°C° 0.1 mm 6 m/S 736 mmHg 71%
    14:00 -8°C° 0.1 mm 5 m/S 736 mmHg 70%
    15:00 -9°C° 0.1 mm 6 m/S 737 mmHg 74%
    16:00 -9°C° 0.1 mm 6 m/S 737 mmHg 77%
    17:00 -9°C° 0.1 mm 6 m/S 738 mmHg 80%
    18:00 -9°C° 0.1 mm 6 m/S 739 mmHg 79%
    19:00 -10°C° 0.1 mm 6 m/S 740 mmHg 78%
    20:00 -10°C° 0.1 mm 6 m/S 740 mmHg 77%
    21:00 -11°C° 0.1 mm 6 m/S 741 mmHg 77%
    22:00 -12°C° 0.1 mm 6 m/S 742 mmHg 78%
    23:00 -12°C° 0.1 mm 6 m/S 743 mmHg 78%
    Mehr zeigen